Location: Rio Tanui
(39.9167°N, 8.5167°E)
Time: 14:54:28
(UTC+00:00)

Meteor 2-2 Rocket - Pass Details

Date: 24 June 2024
Orbit: 851 x 928 km, 81.3° (Epoch: 18 July)

Event Time Altitude Azimuth Distance (km) Brightness Sun altitude
Rises 03:09:56 0° 339° (NNW) 3,426 7.6 -8.3°
Reaches altitude 10° 03:12:38 10° 328° (NNW) 2,486 6.8 -7.9°
Maximum altitude 03:17:21 28° 271° (W) 1,538 5.2 -7.2°
Drops below altitude 10° 03:22:05 10° 213° (SSW) 2,488 6.0 -6.5°
Enters shadow 03:23:40 - 206° (SSW) 3,021 6.5 -6.3°
